• In Deutschland
  • Länderverzeichnis
  • Für 7 Tage
  • Wassertemperatur
  • Satellitenkarten
  • Wetterkarte
  • Widgets
  • user-avatar
    Anmelden

    Stündliche Wetter Köln

    Heute, 14 August, Dienstag

    Zeit Temperatur Niederschläge Wind Luftdruck Luftfeuchtigkeit
    00:00 +17°C° 0 mm 3 m/S 752 mmHg 90%
    01:00 +17°C° 0,1 mm 3 m/S 753 mmHg 91%
    02:00 +17°C° 0,1 mm 3 m/S 753 mmHg 92%
    03:00 +17°C° 0,1 mm 3 m/S 753 mmHg 93%
    04:00 +17°C° 0 mm 3 m/S 753 mmHg 92%
    05:00 +17°C° 0 mm 3 m/S 754 mmHg 91%
    06:00 +18°C° 0 mm 4 m/S 754 mmHg 90%
    07:00 +18°C° 0,1 mm 4 m/S 754 mmHg 87%
    08:00 +19°C° 0,1 mm 4 m/S 755 mmHg 84%
    09:00 +20°C° 0,1 mm 4 m/S 755 mmHg 81%
    10:00 +21°C° 0,1 mm 4 m/S 755 mmHg 74%
    11:00 +22°C° 0,1 mm 4 m/S 755 mmHg 68%
    12:00 +25°C° 0,1 mm 5 m/S 755 mmHg 62%
    13:00 +25°C° 0,3 mm 5 m/S 756 mmHg 62%
    14:00 +25°C° 0,3 mm 5 m/S 756 mmHg 62%
    15:00 +26°C° 0,3 mm 5 m/S 756 mmHg 62%
    16:00 +25°C° 0,2 mm 4 m/S 756 mmHg 65%
    17:00 +24°C° 0,2 mm 3 m/S 756 mmHg 69%
    18:00 +22°C° 0,2 mm 3 m/S 757 mmHg 72%
    19:00 +21°C° 0 mm 3 m/S 757 mmHg 75%
    20:00 +20°C° 0 mm 2 m/S 758 mmHg 78%
    21:00 +19°C° 0 mm 2 m/S 758 mmHg 81%
    22:00 +18°C° 0 mm 2 m/S 758 mmHg 81%
    23:00 +17°C° 0 mm 2 m/S 758 mmHg 82%

    Morgen, 15 August, Mittwoch

    Zeit Temperatur Niederschläge Wind Luftdruck Luftfeuchtigkeit
    00:00 +17°C° 0 mm 2 m/S 759 mmHg 83%
    01:00 +16°C° 0 mm 2 m/S 759 mmHg 84%
    02:00 +16°C° 0 mm 2 m/S 758 mmHg 84%
    03:00 +16°C° 0 mm 2 m/S 758 mmHg 85%
    04:00 +16°C° 0 mm 2 m/S 759 mmHg 84%
    05:00 +17°C° 0 mm 2 m/S 759 mmHg 83%
    06:00 +18°C° 0 mm 2 m/S 759 mmHg 82%
    07:00 +19°C° 0 mm 2 m/S 759 mmHg 75%
    08:00 +21°C° 0 mm 2 m/S 759 mmHg 69%
    09:00 +24°C° 0 mm 2 m/S 759 mmHg 63%
    10:00 +25°C° 0 mm 2 m/S 759 mmHg 60%
    11:00 +26°C° 0 mm 2 m/S 759 mmHg 56%
    12:00 +27°C° 0 mm 2 m/S 759 mmHg 53%
    13:00 +27°C° 0 mm 2 m/S 759 mmHg 53%
    14:00 +27°C° 0 mm 2 m/S 759 mmHg 53%
    15:00 +27°C° 0 mm 2 m/S 759 mmHg 53%
    16:00 +27°C° 0 mm 2 m/S 758 mmHg 57%
    17:00 +26°C° 0 mm 2 m/S 758 mmHg 60%
    18:00 +26°C° 0 mm 1 m/S 758 mmHg 64%
    19:00 +24°C° 0 mm 1 m/S 758 mmHg 67%
    20:00 +23°C° 0 mm 1 m/S 759 mmHg 71%
    21:00 +22°C° 0 mm 1 m/S 759 mmHg 75%
    22:00 +21°C° 0 mm 1 m/S 759 mmHg 78%
    23:00 +21°C° 0 mm 1 m/S 759 mmHg 81%

    übermorgen, 16 August, Donnerstag

    Zeit Temperatur Niederschläge Wind Luftdruck Luftfeuchtigkeit
    00:00 +20°C° 0 mm 1 m/S 759 mmHg 83%
    01:00 +20°C° 0 mm 1 m/S 759 mmHg 85%
    02:00 +19°C° 0 mm 1 m/S 758 mmHg 86%
    03:00 +19°C° 0 mm 1 m/S 758 mmHg 87%
    04:00 +20°C° 0 mm 1 m/S 758 mmHg 85%
    05:00 +20°C° 0 mm 1 m/S 758 mmHg 83%
    06:00 +21°C° 0 mm 1 m/S 758 mmHg 80%
    07:00 +23°C° 0 mm 2 m/S 758 mmHg 71%
    08:00 +25°C° 0 mm 2 m/S 758 mmHg 63%
    09:00 +27°C° 0 mm 2 m/S 757 mmHg 54%
    10:00 +28°C° 0 mm 2 m/S 757 mmHg 49%
    11:00 +29°C° 0 mm 2 m/S 757 mmHg 44%
    12:00 +30°C° 0 mm 2 m/S 756 mmHg 39%
    13:00 +31°C° 0 mm 2 m/S 756 mmHg 38%
    14:00 +31°C° 0 mm 2 m/S 755 mmHg 37%
    15:00 +32°C° 0 mm 2 m/S 755 mmHg 36%
    16:00 +30°C° 0 mm 2 m/S 755 mmHg 41%
    17:00 +29°C° 0 mm 1 m/S 755 mmHg 46%
    18:00 +28°C° 0 mm 1 m/S 755 mmHg 51%
    19:00 +27°C° 0 mm 1 m/S 755 mmHg 55%
    20:00 +25°C° 0 mm 2 m/S 755 mmHg 60%
    21:00 +24°C° 0 mm 2 m/S 756 mmHg 65%
    22:00 +23°C° 0,1 mm 2 m/S 756 mmHg 71%
    23:00 +21°C° 0,1 mm 2 m/S 756 mmHg 76%

    17 August, Freitag

    Zeit Temperatur Niederschläge Wind Luftdruck Luftfeuchtigkeit
    00:00 +20°C° 0,1 mm 2 m/S 756 mmHg 82%
    01:00 +19°C° 0,2 mm 2 m/S 756 mmHg 85%
    02:00 +19°C° 0,2 mm 2 m/S 756 mmHg 88%
    03:00 +18°C° 0,2 mm 2 m/S 756 mmHg 91%
    04:00 +19°C° 0,5 mm 2 m/S 756 mmHg 90%
    05:00 +19°C° 0,5 mm 2 m/S 757 mmHg 90%
    06:00 +19°C° 0,5 mm 2 m/S 757 mmHg 90%
    07:00 +20°C° 0,2 mm 2 m/S 757 mmHg 86%
    08:00 +20°C° 0,2 mm 2 m/S 757 mmHg 83%
    09:00 +21°C° 0,2 mm 2 m/S 757 mmHg 80%
    10:00 +23°C° 0 mm 2 m/S 758 mmHg 74%
    11:00 +23°C° 0 mm 2 m/S 758 mmHg 68%
    12:00 +24°C° 0 mm 3 m/S 758 mmHg 62%
    13:00 +25°C° 0 mm 3 m/S 758 mmHg 56%
    14:00 +26°C° 0 mm 3 m/S 758 mmHg 51%
    15:00 +27°C° 0 mm 3 m/S 758 mmHg 45%
    16:00 +25°C° 0 mm 3 m/S 758 mmHg 48%
    17:00 +24°C° 0 mm 2 m/S 758 mmHg 51%
    18:00 +23°C° 0 mm 2 m/S 759 mmHg 54%
    19:00 +21°C° 0 mm 2 m/S 759 mmHg 58%
    20:00 +20°C° 0 mm 2 m/S 760 mmHg 61%
    21:00 +18°C° 0 mm 2 m/S 760 mmHg 64%
    22:00 +18°C° 0 mm 2 m/S 760 mmHg 66%
    23:00 +18°C° 0 mm 1 m/S 761 mmHg 67%

    18 August, Samstag

    Zeit Temperatur Niederschläge Wind Luftdruck Luftfeuchtigkeit
    00:00 +16°C° 0 mm 1 m/S 761 mmHg 69%
    01:00 +16°C° 0 mm 1 m/S 761 mmHg 71%
    02:00 +15°C° 0 mm 1 m/S 761 mmHg 72%
    03:00 +15°C° 0 mm 1 m/S 761 mmHg 73%
    04:00 +16°C° 0 mm 1 m/S 761 mmHg 72%
    05:00 +16°C° 0 mm 1 m/S 761 mmHg 70%
    06:00 +18°C° 0 mm 1 m/S 761 mmHg 69%
    07:00 +18°C° 0 mm 2 m/S 761 mmHg 63%
    08:00 +20°C° 0 mm 2 m/S 762 mmHg 57%
    09:00 +22°C° 0 mm 3 m/S 762 mmHg 50%
    10:00 +24°C° 0 mm 3 m/S 761 mmHg 47%
    11:00 +25°C° 0 mm 3 m/S 761 mmHg 44%
    12:00 +26°C° 0 mm 3 m/S 761 mmHg 41%
    13:00 +27°C° 0 mm 3 m/S 761 mmHg 43%
    14:00 +27°C° 0 mm 3 m/S 760 mmHg 45%
    15:00 +27°C° 0 mm 3 m/S 760 mmHg 47%
    16:00 +26°C° 0 mm 3 m/S 760 mmHg 53%
    17:00 +25°C° 0 mm 3 m/S 760 mmHg 59%
    18:00 +24°C° 0 mm 2 m/S 760 mmHg 65%
    19:00 +23°C° 0 mm 2 m/S 761 mmHg 69%
    20:00 +21°C° 0 mm 2 m/S 761 mmHg 74%
    21:00 +19°C° 0 mm 2 m/S 762 mmHg 78%
    22:00 +19°C° 0 mm 2 m/S 762 mmHg 81%
    23:00 +18°C° 0 mm 2 m/S 762 mmHg 83%

    19 August, Sonntag

    Zeit Temperatur Niederschläge Wind Luftdruck Luftfeuchtigkeit
    00:00 +18°C° 0 mm 2 m/S 762 mmHg 86%
    01:00 +17°C° 0 mm 2 m/S 761 mmHg 87%
    02:00 +17°C° 0 mm 2 m/S 761 mmHg 88%
    03:00 +17°C° 0 mm 2 m/S 761 mmHg 89%
    04:00 +17°C° 0 mm 2 m/S 761 mmHg 87%
    05:00 +17°C° 0 mm 2 m/S 761 mmHg 85%
    06:00 +18°C° 0 mm 2 m/S 762 mmHg 83%
    07:00 +20°C° 0 mm 2 m/S 762 mmHg 76%
    08:00 +23°C° 0 mm 2 m/S 762 mmHg 69%
    09:00 +25°C° 0 mm 2 m/S 762 mmHg 62%
    10:00 +26°C° 0 mm 2 m/S 761 mmHg 58%
    11:00 +27°C° 0 mm 2 m/S 761 mmHg 54%
    12:00 +29°C° 0 mm 2 m/S 761 mmHg 51%
    13:00 +29°C° 0 mm 2 m/S 761 mmHg 51%
    14:00 +29°C° 0 mm 3 m/S 760 mmHg 52%
    15:00 +29°C° 0 mm 3 m/S 760 mmHg 52%
    16:00 +28°C° 0 mm 3 m/S 760 mmHg 57%
    17:00 +27°C° 0 mm 2 m/S 760 mmHg 62%
    18:00 +26°C° 0 mm 2 m/S 760 mmHg 68%
    19:00 +24°C° 0 mm 2 m/S 760 mmHg 73%
    20:00 +23°C° 0 mm 2 m/S 761 mmHg 77%
    21:00 +21°C° 0 mm 2 m/S 761 mmHg 82%
    22:00 +20°C° 0 mm 2 m/S 761 mmHg 84%
    23:00 +20°C° 0 mm 2 m/S 761 mmHg 86%
    Mehr zeigen